Weather History for KCKN - January, 2013

Change the Weather History Date:

Friday, January 11, 2013

  Actual Average (KGFK) Record (KGFK)
Temperature  
Mean Temperature 22 °F 6 °F  
Max Temperature 33 °F 16 °F 42 °F (1986)
Min Temperature 10 °F -3 °F -30 °F (1979)
Degree Days  
Heating Degree Days 42 59  
Month to date heating degree days 641  
Since 1 July heating degree days 4500  
Cooling Degree Days 0 0  
Month to date cooling degree days 0  
Year to date cooling degree days 0  
Moisture  
Dew Point 23 °F    
Average Humidity 97    
Maximum Humidity 100    
Minimum Humidity 86    
Precipitation  
Precipitation 0.02 in 0.02 in 0.73 in (1975)
Month to date precipitation 0.21  
Year to date precipitation 0.21  
Snow  
Snow 0.00 in 0.40 in 7.30 in (1975)
Month to date snowfall 4.0  
Since 1 July snowfall 23.9  
Snow Depth -    
Sea Level Pressure  
Sea Level Pressure 29.52 in    
Wind  
Wind Speed 12 mph (North)    
Max Wind Speed 24 mph    
Max Gust Speed 29 mph    
Visibility 2 miles    
Events Snow    
T = Trace of Precipitation, MM = Missing Value Source: NWS Daily Summary

Daily Weather History Graph

Daily Weather History Graph

Search for Another Location

Airport or City:

Trip Planner

Search our weather history database for the weather conditions in past years. The results will help you decide how hot, cold, wet, or windy it might be!

Date:

Astronomy

Jan. 11, 2013 Rise Set
Actual Time 8:12 AM CST 4:56 PM CST
Civil Twilight 7:37 AM CST 5:31 PM CST
Nautical Twilight 6:58 AM CST 6:10 PM CST
Astronomical Twilight 6:21 AM CST 6:47 PM CST
Moon 7:43 AM CST (1/11) 5:20 PM CST (1/11)
Length of Visible Light 9h 54m
Length of Day
8h 43m
Waning Crescent, 0% of the Moon is Illuminated
Jan 11
Waning Crescent
Jan 11
New
Jan 18
First Quarter
Jan 26
Full
Feb 3
Last Quarter

Hourly Weather History & Observations

Time (CST) Temp. Windchill Dew Point Humidity Pressure Visibility Wind Dir Wind Speed Gust Speed Precip Events Conditions
12:15 AM 33.8 °F 25.3 °F 33.8 °F 100% 29.57 in 3.0 mi South 11.5 mph - N/A   Overcast
12:35 AM 33.8 °F 25.8 °F 33.8 °F 100% 29.57 in 1.8 mi South 10.4 mph - 0.01 in   Overcast
12:54 AM 33.8 °F 26.4 °F 33.8 °F 100% 29.56 in 2.0 mi South 9.2 mph - N/A   Overcast
1:15 AM 33.8 °F 27.7 °F 33.8 °F 100% 29.56 in 2.0 mi South 6.9 mph - N/A   Overcast
1:35 AM 33.8 °F 27.7 °F 33.8 °F 100% 29.56 in 1.8 mi South 6.9 mph - N/A   Overcast
1:54 AM 33.8 °F 28.6 °F 33.8 °F 100% 29.56 in 1.8 mi South 5.8 mph - N/A   Overcast
2:15 AM 33.8 °F 29.6 °F 33.8 °F 100% 29.57 in 1.8 mi South 4.6 mph - N/A   Overcast
2:35 AM 33.8 °F 30.8 °F 33.8 °F 100% 29.56 in 1.5 mi South 3.5 mph - 0.01 in   Overcast
2:54 AM 33.8 °F 30.8 °F 33.8 °F 100% 29.56 in 1.8 mi SE 3.5 mph - N/A   Overcast
3:15 AM 33.8 °F 30.8 °F 33.8 °F 100% 29.55 in 1.8 mi SSE 3.5 mph - N/A   Overcast
3:35 AM 33.8 °F 30.8 °F 33.8 °F 100% 29.54 in 1.5 mi SE 3.5 mph - N/A   Overcast
3:54 AM 33.8 °F - 33.8 °F 100% 29.54 in 1.8 mi Calm Calm - N/A   Overcast
4:15 AM 33.8 °F 30.8 °F 33.8 °F 100% 29.53 in 1.5 mi ESE 3.5 mph - N/A   Overcast
4:35 AM 33.8 °F 30.8 °F 33.8 °F 100% 29.52 in 1.2 mi East 3.5 mph - N/A   Overcast
4:54 AM 33.8 °F - 33.8 °F 100% 29.52 in 1.2 mi Calm Calm - N/A   Overcast
5:15 AM 33.8 °F 30.8 °F 33.8 °F 100% 29.51 in 1.2 mi East 3.5 mph - 0.01 in   Overcast
5:35 AM 33.8 °F 30.8 °F 33.8 °F 100% 29.51 in 1.2 mi East 3.5 mph - 0.01 in   Overcast
6:15 AM 33.8 °F 30.8 °F 33.8 °F 100% 29.51 in 1.2 mi East 3.5 mph - N/A   Overcast
6:35 AM 33.8 °F 30.8 °F 33.8 °F 100% 29.51 in 1.8 mi East 3.5 mph - N/A   Overcast
6:54 AM 32.0 °F 22.1 °F 30.2 °F 93% 29.52 in 2.0 mi North 13.8 mph - N/A   Overcast
7:15 AM 28.4 °F 17.5 °F 28.4 °F 100% 29.53 in 2.5 mi North 13.8 mph - N/A   Overcast
7:35 AM 28.4 °F 17.0 °F 28.4 °F 100% 29.53 in 2.5 mi North 15.0 mph - N/A   Overcast
7:54 AM 28.4 °F 16.6 °F 28.4 °F 100% 29.52 in 2.0 mi North 16.1 mph - N/A   Overcast
8:15 AM 26.6 °F 13.8 °F 26.6 °F 100% 29.53 in 2.5 mi NNW 17.3 mph - N/A   Overcast
8:34 AM 26.6 °F 15.2 °F 26.6 °F 100% 29.52 in 2.5 mi North 13.8 mph - N/A   Overcast
8:54 AM 26.6 °F 15.2 °F 26.6 °F 100% 29.52 in 2.0 mi North 13.8 mph - N/A   Overcast
9:15 AM 26.6 °F 16.2 °F 26.6 °F 100% 29.53 in 2.0 mi North 11.5 mph - N/A   Overcast
9:34 AM 26.6 °F 14.7 °F 26.6 °F 100% 29.52 in 2.5 mi North 15.0 mph - N/A   Overcast
9:55 AM 26.6 °F 15.2 °F 26.6 °F 100% 29.52 in 2.5 mi North 13.8 mph - N/A   Overcast
10:14 AM 26.6 °F 14.3 °F 26.6 °F 100% 29.54 in 3.0 mi North 16.1 mph - N/A   Overcast
10:34 AM 24.8 °F 11.1 °F 24.8 °F 100% 29.54 in 3.0 mi North 18.4 mph - N/A   Overcast
10:55 AM 24.8 °F 11.9 °F 24.8 °F 100% 29.54 in 4.0 mi North 16.1 mph - N/A   Overcast
11:14 AM 23.0 °F 7.6 °F 23.0 °F 100% 29.53 in 1.8 mi NNW 21.9 mph 26.5 mph N/A   Overcast
11:35 AM 21.2 °F 6.0 °F 21.2 °F 100% 29.52 in 1.8 mi North 19.6 mph - N/A   Overcast
11:55 AM 21.2 °F 5.2 °F 21.2 °F 100% 29.52 in 2.0 mi North 21.9 mph - N/A   Overcast
12:14 PM 21.2 °F 6.8 °F 21.2 °F 100% 29.50 in 2.5 mi North 17.3 mph - N/A   Overcast
12:35 PM 21.2 °F 6.4 °F 21.2 °F 100% 29.51 in 2.5 mi North 18.4 mph - N/A   Overcast
12:54 PM 21.2 °F 6.8 °F 21.2 °F 100% 29.51 in 2.5 mi North 17.3 mph - N/A   Overcast
1:15 PM 21.2 °F 6.8 °F 19.4 °F 93% 29.50 in 3.0 mi North 17.3 mph - N/A   Overcast
2:15 PM 19.4 °F 4.5 °F 19.4 °F 100% 29.50 in 2.0 mi North 17.3 mph - N/A   Overcast
2:35 PM 19.4 °F 3.6 °F 19.4 °F 100% 29.49 in 3.0 mi North 19.6 mph - N/A   Overcast
2:54 PM 19.4 °F 3.2 °F 19.4 °F 100% 29.49 in 4.0 mi North 20.7 mph 24.2 mph N/A   Overcast
3:15 PM 19.4 °F 3.2 °F 17.6 °F 93% 29.50 in 2.5 mi North 20.7 mph - N/A   Overcast
3:34 PM 17.6 °F 1.3 °F 17.6 °F 100% 29.51 in 2.5 mi North 19.6 mph - N/A   Overcast
3:55 PM 17.6 °F 1.7 °F 17.6 °F 100% 29.50 in 2.0 mi North 18.4 mph 24.2 mph N/A Snow Light Snow
4:15 PM 17.6 °F 0.9 °F 17.6 °F 100% 29.48 in 5.0 mi North 20.7 mph 25.3 mph N/A   Overcast
4:34 PM 17.6 °F 1.7 °F 17.6 °F 100% 29.47 in 10.0 mi North 18.4 mph - N/A   Overcast
4:55 PM 17.6 °F 0.9 °F 17.6 °F 100% 29.46 in 10.0 mi North 20.7 mph 26.5 mph N/A   Overcast
5:15 PM 17.6 °F 2.2 °F 15.8 °F 93% 29.48 in 7.0 mi North 17.3 mph - N/A   Overcast
5:34 PM 17.6 °F 1.3 °F 15.8 °F 93% 29.49 in 4.0 mi North 19.6 mph - N/A Snow Light Snow
5:55 PM 17.6 °F 1.3 °F 15.8 °F 93% 29.48 in 2.5 mi North 19.6 mph 24.2 mph N/A Snow Light Snow
6:14 PM 17.6 °F 2.2 °F 15.8 °F 93% 29.49 in 2.5 mi NNW 17.3 mph - N/A Snow Light Snow
6:35 PM 15.8 °F -1.9 °F 14.0 °F 93% 29.49 in 5.0 mi North 21.9 mph 27.6 mph N/A Snow Light Snow
6:55 PM 15.8 °F -1.9 °F 14.0 °F 93% 29.49 in 2.0 mi North 21.9 mph 28.8 mph N/A Snow Light Snow
7:14 PM 15.8 °F -2.3 °F 12.2 °F 86% 29.49 in 2.0 mi North 23.0 mph - N/A Snow Light Snow
7:35 PM 15.8 °F -1.5 °F 12.2 °F 86% 29.50 in 2.0 mi North 20.7 mph 26.5 mph N/A Snow Light Snow
7:55 PM 15.8 °F -1.1 °F 12.2 °F 86% 29.50 in 1.5 mi North 19.6 mph 25.3 mph N/A Snow Light Snow
8:14 PM 14.0 °F -3.9 °F 12.2 °F 93% 29.50 in 1.5 mi North 20.7 mph - N/A Snow Light Snow
8:35 PM 14.0 °F -5.1 °F 12.2 °F 93% 29.50 in 1.0 mi North 24.2 mph - N/A Snow Light Snow
8:54 PM 14.0 °F -3.9 °F 12.2 °F 93% 29.50 in 1.2 mi North 20.7 mph - N/A Snow Light Snow
9:14 PM 14.0 °F -4.7 °F 12.2 °F 93% 29.49 in 0.8 mi North 23.0 mph 26.5 mph N/A Snow Light Snow
9:35 PM 14.0 °F -3.4 °F 10.4 °F 86% 29.50 in 0.8 mi North 19.6 mph - N/A Snow Snow
9:55 PM 12.2 °F -6.3 °F 10.4 °F 92% 29.50 in 0.5 mi North 20.7 mph 24.2 mph N/A Snow Snow
10:14 PM 12.2 °F -5.3 °F 10.4 °F 92% 29.50 in 0.5 mi North 18.4 mph - N/A Snow Snow
10:35 PM 12.2 °F -5.3 °F 10.4 °F 92% 29.50 in 0.8 mi North 18.4 mph - N/A Snow Snow
10:54 PM 12.2 °F -5.3 °F 10.4 °F 92% 29.50 in 0.8 mi North 18.4 mph - N/A Snow Snow
11:15 PM 12.2 °F -5.3 °F 10.4 °F 92% 29.50 in 0.8 mi North 18.4 mph - N/A Snow Snow
11:35 PM 12.2 °F -5.3 °F 10.4 °F 92% 29.50 in 1.0 mi North 18.4 mph 25.3 mph N/A Snow Snow
11:54 PM 10.4 °F -8.6 °F 8.6 °F 92% 29.51 in 0.2 mi North 20.7 mph - N/A Snow Heavy Snow